Wind_Speed
41 41 41 40 40 39 39 38 36 35 34 33 33 32 33 33 33 34 34 34 35 35 36 36 36 36 35 35 35 35 34 33 32 31 30 30 29 29 29 29 28 28 27 27 26 26 25 25 25 24 24 24 23 23 23 23 24 24 25 25 26 26 26 27 27 27 27 27 27 27 27 27 27 27 27 26 26 26 25 24 24 23 23 24 24 25
41 40 40 40 39 38 38 37 35 34 33 33 33 33 33 33 33 34 34 35 35 35 36 36 36 35 35 35 34 34 33 32 31 31 30 29 29 29 29 28 28 27 27 26 26 25 25 25 24 24 24 24 24 24 24 24 25 25 25 26 26 27 27 28 28 28 29 29 29 29 29 29 29 28 28 28 28 28 28 28 27 26 26 26 26 26
40 40 39 39 38 37 37 36 35 34 33 33 33 33 33 33 34 34 34 35 35 35 35 35 35 35 35 34 34 33 32 32 31 30 29 29 29 29 28 28 27 27 26 26 25 25 25 25 25 25 25 24 24 24 25 25 25 26 26 27 27 27 28 28 29 29 30 30 30 31 31 31 31 31 31 30 30 30 30 30 30 30 29 29 28 28
39 39 38 38 37 36 36 35 34 33 33 33 33 33 33 34 34 34 35 35 35 35 35 35 35 34 34 34 33 32 32 31 30 29 29 29 29 29 28 28 27 27 26 26 25 25 25 25 25 25 25 25 25 25 26 26 26 27 27 27 28 28 28 28 29 29 30 30 31 31 31 32 32 32 32 32 32 32 32 32 32 32 32 32 31 31
38 38 38 37 36 35 35 34 34 33 33 33 33 33 34 34 35 35 35 35 35 35 35 35 34 34 34 33 33 32 31 30 30 29 29 29 29 28 28 27 27 26 26 26 26 26 26 26 26 26 26 26 26 26 26 27 27 27 28 28 28 28 28 29 29 29 29 30 30 31 31 32 32 33 33 34 34 34 34 34 34 34 34 34 34 34
37 37 37 36 35 35 34 34 34 33 33 34 34 34 34 35 35 35 35 35 35 35 35 34 34 34 33 33 32 31 30 30 29 29 29 29 29 28 28 27 27 26 26 26 26 26 26 26 27 27 27 27 27 27 27 27 28 28 28 29 29 29 29 29 29 29 30 30 31 31 32 32 33 33 34 34 35 35 35 36 36 36 36 36 36 36
37 36 36 35 35 35 34 34 34 34 34 34 34 35 35 35 35 35 35 35 35 35 34 34 34 33 33 32 32 31 30 30 29 29 29 29 28 28 28 27 27 26 26 26 26 26 27 27 27 27 28 28 28 28 28 28 28 29 29 29 29 29 29 30 30 30 30 31 31 32 32 33 33 34 35 35 36 36 36 37 37 37 38 38 38 38
36 36 35 35 35 35 34 34 34 34 34 35 35 35 35 35 35 35 35 35 35 34 34 34 33 33 32 32 31 30 30 29 29 29 29 28 28 28 27 27 26 26 26 27 27 27 28 28 28 28 28 28 28 28 29 29 29 29 29 30 30 30 30 30 30 31 31 32 32 33 33 34 35 35 36 36 37 37 38 38 39 39 39 40 40 40
36 35 35 35 34 34 35 35 35 35 35 35 36 36 36 35 35 35 35 35 35 34 34 33 33 32 32 31 31 30 29 29 29 29 28 28 27 27 27 26 26 26 27 27 27 28 28 29 29 29 29 29 29 29 29 29 30 30 30 30 30 30 31 31 31 32 32 33 33 34 35 35 36 37 37 38 39 39 40 40 40 41 41 41 42 42
36 35 35 35 35 35 35 35 35 35 35 36 36 36 36 36 35 35 35 35 34 34 33 33 32 32 31 31 30 29 29 29 28 28 28 27 27 27 26 26 27 27 27 28 28 29 29 29 30 30 30 30 30 30 30 30 30 30 30 31 31 31 32 32 32 33 34 34 35 35 36 37 37 38 39 39 40 41 41 42 42 42 43 43 43 44
36 35 35 35 35 35 35 36 36 36 36 36 36 36 36 36 35 35 35 34 34 34 33 33 32 31 31 30 29 29 29 28 28 28 27 27 27 26 26 27 27 27 28 28 29 29 30 30 30 30 30 30 30 30 30 30 30 31 31 31 32 32 33 33 34 34 35 36 36 37 37 38 39 39 40 40 41 42 42 43 43 44 44 45 45 45
36 36 35 35 36 36 36 36 36 36 36 36 36 36 36 36 35 35 34 34 34 33 33 32 32 31 30 30 29 29 28 28 28 27 27 26 26 26 26 27 27 28 28 29 29 30 30 31 31 31 31 31 30 30 30 31 31 31 32 32 33 33 34 34 35 36 36 37 37 38 39 39 40 40 41 42 42 43 43 44 45 45 45 46 46 46
36 36 36 36 36 36 36 36 36 36 36 36 36 36 36 36 35 35 34 34 33 33 33 32 32 31 30 29 29 28 28 28 27 27 26 26 26 26 26 27 27 28 29 29 30 30 31 31 31 31 31 31 30 30 31 31 31 32 32 33 34 34 35 36 36 37 37 38 38 39 40 40 41 41 42 43 43 44 44 45 45 46 46 47 47 47
36 36 36 36 36 36 36 36 36 36 36 37 36 36 36 36 35 35 34 33 33 33 32 32 31 31 30 29 28 28 28 27 27 27 26 26 26 26 27 27 28 28 29 30 30 31 31 31 31 31 31 31 30 31 31 31 32 32 33 34 35 35 36 36 37 38 38 39 39 40 40 41 42 42 43 44 44 45 46 46 46 47 47 47 48 48
36 36 36 36 36 36 36 36 37 37 37 37 37 36 36 35 35 34 33 33 33 32 32 31 31 30 30 29 28 28 27 27 27 27 26 26 26 27 27 28 28 29 30 30 30 31 31 31 31 31 31 30 30 31 31 32 32 33 34 35 35 36 37 37 38 38 39 40 40 41 41 42 43 44 44 45 46 46 47 47 47 48 48 48 48 49
36 36 36 36 36 37 37 37 37 37 37 37 36 36 35 34 34 33 33 33 32 32 32 31 30 30 29 29 28 28 27 27 27 27 26 26 27 27 27 28 29 29 30 30 30 31 31 31 31 30 30 30 31 31 32 32 33 34 35 36 36 37 38 38 39 39 40 40 41 42 42 43 44 45 46 46 47 47 48 48 48 48 49 49 49 49
37 37 37 37 37 37 38 38 37 37 37 36 36 35 34 34 33 33 33 32 32 32 31 31 30 29 29 29 28 27 27 27 27 27 27 27 27 27 28 29 29 30 30 30 30 30 31 30 30 30 30 31 31 32 32 33 34 35 36 37 37 38 38 39 39 40 41 41 42 43 44 44 45 46 47 48 48 48 48 49 49 49 49 49 49 50
37 37 37 37 37 37 37 37 37 36 36 35 34 34 33 33 33 33 32 32 32 32 31 30 30 29 29 28 28 28 27 27 27 27 27 27 27 28 28 29 30 30 30 30 30 30 31 31 31 31 31 31 32 32 33 34 35 36 37 37 38 39 39 40 40 41 41 42 43 44 45 46 47 47 48 49 49 49 49 49 49 49 49 50 50 50
37 37 37 37 37 36 36 36 35 35 34 34 33 33 33 33 32 32 32 32 32 32 31 30 30 29 28 28 28 28 27 27 27 27 27 27 28 28 29 29 30 30 30 30 31 31 31 31 31 31 32 32 33 34 35 36 36 37 38 38 39 39 40 40 41 42 42 43 44 45 46 47 48 49 49 49 49 49 49 49 49 49 49 50 50 51
36 35 35 35 35 34 34 34 33 33 33 32 32 32 32 32 33 33 33 32 32 32 31 30 30 29 28 28 28 28 28 27 27 28 28 28 28 29 29 30 30 31 31 31 31 31 31 32 32 32 33 34 34 35 36 37 38 38 39 39 40 40 41 41 42 43 44 44 45 46 47 48 49 49 50 50 50 49 49 49 49 49 50 50 50 51
33 33 33 33 32 32 32 32 32 32 32 32 32 32 33 33 33 33 33 33 32 31 31 30 30 29 29 28 28 28 28 28 28 28 29 29 29 29 30 31 31 31 31 32 32 32 32 33 33 34 34 35 36 37 37 38 38 39 39 40 40 41 42 42 43 44 45 46 47 47 48 49 50 50 50 50 50 49 49 49 49 49 50 50 50 50
31 31 31 31 31 31 31 31 31 32 32 32 33 33 33 33 33 33 33 32 32 31 30 30 29 29 29 29 28 28 28 28 29 29 29 30 30 30 31 31 32 32 32 32 33 33 33 34 35 35 36 37 37 38 38 39 39 40 40 41 41 42 43 43 44 45 46 47 48 48 49 50 50 50 50 50 50 49 49 49 49 50 50 50 50 50
30 30 30 30 31 31 31 32 32 32 33 33 33 34 34 34 33 33 33 32 31 31 30 30 29 29 29 29 29 29 29 29 29 30 30 30 31 31 32 32 33 33 33 33 34 34 35 35 36 37 37 38 38 39 39 40 40 40 41 42 42 43 44 45 45 46 47 48 48 49 50 50 51 51 50 50 49 49 49 49 49 50 50 50 49 49
30 30 31 31 31 32 32 32 33 33 34 34 34 34 34 34 33 33 32 31 31 30 30 30 29 29 29 29 29 29 29 29 30 31 31 32 32 32 33 33 34 34 34 34 35 35 36 37 37 38 38 39 39 39 40 40 41 41 42 42 43 44 45 45 46 47 48 48 49 50 51 51 51 50 50 50 49 49 49 49 49 50 49 49 48 47
31 31 32 32 32 33 33 33 34 34 34 34 34 34 34 33 33 32 32 31 30 30 30 30 29 29 29 29 29 29 30 30 31 31 32 32 33 33 34 34 34 35 35 35 36 36 37 37 38 38 39 39 40 40 40 41 41 42 42 43 44 45 46 46 47 48 48 49 50 50 51 51 51 50 50 49 49 49 49 49 49 49 49 48 47 46
32 32 33 33 33 33 34 34 34 34 34 34 34 34 33 33 32 32 31 30 30 30 30 30 29 29 30 30 30 30 30 31 31 32 33 33 34 34 35 35 35 36 36 36 36 37 38 38 39 39 39 39 40 40 40 41 42 42 43 44 45 46 47 47 48 48 49 50 50 51 51 51 50 50 49 49 49 49 49 49 49 49 48 47 45 44
32 33 33 33 34 34 34 34 34 34 34 34 34 33 33 32 32 31 30 30 30 30 30 30 30 30 30 30 30 30 31 31 32 33 33 34 35 35 35 36 36 36 37 37 37 38 38 38 39 39 39 39 40 40 41 42 42 43 44 45 46 47 47 48 48 49 50 50 51 51 51 51 50 50 49 49 49 49 49 49 48 48 47 45 44 43
33 33 33 33 34 34 34 34 34 34 34 33 33 33 32 32 31 30 30 30 30 30 30 30 30 30 30 30 31 31 31 32 33 33 34 35 35 36 36 37 37 37 38 38 38 38 38 39 39 39 39 40 40 41 41 42 43 44 45 46 47 47 48 48 49 50 50 51 51 51 51 50 50 49 49 48 48 48 48 48 48 47 45 44 43 42
33 33 33 33 33 33 34 33 33 33 33 33 32 32 32 31 31 30 30 30 30 30 30 30 30 31 31 31 31 32 32 33 33 34 35 36 36 37 37 37 38 38 38 39 39 39 38 38 38 39 39 40 40 41 42 43 44 45 46 47 47 48 48 49 50 50 51 51 51 51 51 50 49 49 48 48 48 48 48 48 47 46 44 43 42 42
33 33 33 33 33 33 33 33 33 33 32 32 32 32 31 31 31 30 30 30 30 30 30 30 31 31 31 31 32 32 33 33 34 35 36 37 37 38 38 38 38 39 39 39 39 39 39 38 38 39 39 40 41 42 43 44 45 46 47 47 48 48 49 49 50 51 51 51 51 51 50 49 49 48 48 48 48 48 48 47 46 45 43 42 42 41
33 33 33 33 33 33 33 32 32 32 32 32 31 31 31 31 31 31 30 30 30 31 31 31 31 31 32 32 32 33 33 34 35 35 36 37 38 38 39 39 39 39 39 39 39 39 39 39 39 39 40 40 41 42 44 45 46 47 47 48 48 49 49 50 50 51 51 51 51 50 50 49 49 48 48 48 48 47 47 47 45 44 43 42 41 41
33 33 33 33 32 32 32 32 32 32 31 31 31 31 31 31 31 31 31 31 31 31 31 31 31 32 32 32 33 33 34 35 36 36 37 38 39 39 39 39 40 40 39 39 39 40 40 40 40 40 40 41 42 43 44 45 46 47 48 48 49 49 49 50 50 51 51 51 50 50 49 49 48 48 47 47 47 47 47 46 45 43 42 41 41 40
33 33 33 33 32 32 32 31 31 31 31 31 31 31 31 31 31 31 31 31 31 31 31 32 32 32 32 33 33 34 35 36 37 38 38 39 40 40 40 40 40 40 40 40 39 40 40 40 40 41 41 42 43 44 45 46 47 47 48 48 49 49 49 50 50 51 51 50 50 49 49 48 48 47 47 47 47 47 46 45 44 43 42 41 40 40
33 33 33 33 32 32 32 31 31 31 31 30 30 30 31 31 31 31 31 31 31 31 31 32 32 32 33 33 34 35 36 37 38 39 39 40 40 40 40 40 40 40 40 40 40 40 40 40 41 42 43 43 44 45 46 47 47 48 48 48 49 49 50 50 50 50 50 50 49 48 48 48 47 47 47 47 46 46 46 45 44 42 41 40 40 40
33 33 33 33 32 32 32 31 31 31 30 30 30 30 30 30 30 31 31 31 31 31 31 32 32 33 33 34 35 36 37 38 39 39 40 40 41 41 41 41 41 40 40 40 40 40 41 41 42 43 44 44 45 46 47 47 48 48 48 49 49 49 49 50 50 49 49 49 48 48 47 47 46 46 46 46 46 45 45 44 43 42 41 40 39 39
33 33 33 33 32 32 32 31 31 31 30 30 30 30 30 30 30 30 30 31 31 31 31 32 32 33 34 35 36 37 38 38 39 40 40 41 41 41 41 41 41 41 41 41 41 41 42 42 43 44 44 45 46 47 48 48 49 49 49 49 49 49 49 49 49 49 48 48 47 47 46 46 45 45 45 45 45 45 44 43 42 41 40 39 39 38
33 33 33 33 32 32 32 31 31 31 31 30 30 30 30 30 30 30 30 31 31 31 32 33 33 34 35 36 37 37 38 39 40 40 41 41 41 41 41 41 41 41 41 41 41 42 42 43 44 45 45 46 47 48 48 49 49 49 49 49 49 49 49 49 49 48 48 47 47 47 46 46 45 44 44 44 44 44 43 42 41 40 39 38 38 38
33 33 33 33 32 32 32 32 31 31 31 31 31 30 30 30 30 31 31 31 31 32 33 33 34 35 35 36 37 38 38 39 40 40 41 41 41 41 41 41 41 41 41 42 42 43 43 44 45 46 46 47 48 48 49 49 49 49 49 50 50 49 49 49 48 48 47 47 47 47 46 46 45 44 44 44 43 43 43 42 41 40 39 38 37 37
33 33 33 33 32 32 32 32 32 32 32 31 31 31 31 31 31 31 31 32 32 33 33 34 35 35 36 37 37 38 39 39 40 40 41 41 41 41 41 42 42 42 42 42 43 43 44 45 46 46 47 48 48 49 49 49 49 49 50 50 49 49 48 48 48 47 47 47 47 47 46 46 45 44 44 43 43 43 42 41 40 39 38 37 37 36
33 33 33 33 33 32 32 32 32 32 32 32 32 32 32 32 32 32 32 33 33 33 34 34 35 36 36 37 38 38 39 40 40 41 41 41 41 41 42 42 42 42 42 43 43 44 45 46 46 47 48 48 49 49 50 50 50 50 49 49 49 48 48 47 47 47 47 47 47 47 46 45 44 44 43 43 43 43 42 41 40 39 38 37 36 36
33 33 33 33 33 33 32 32 33 33 33 33 33 33 33 33 33 33 33 33 33 34 34 35 35 36 37 37 38 39 39 40 41 41 41 41 42 42 42 42 42 43 43 44 44 45 45 46 47 48 48 49 49 50 50 50 50 50 49 49 48 48 47 47 47 47 47 47 47 46 46 45 44 43 43 43 43 43 42 41 40 39 38 37 36 36
33 33 33 33 33 33 33 33 33 33 33 33 33 33 33 33 33 33 33 33 34 34 34 35 36 37 37 38 38 39 40 40 41 41 41 42 42 42 42 42 43 43 44 44 45 45 46 47 48 48 49 49 49 50 50 50 50 49 49 48 48 47 47 46 46 46 46 46 46 46 45 45 44 43 43 43 43 43 43 42 40 39 38 37 36 36
33 33 33 33 33 33 33 33 33 33 33 33 34 34 34 34 34 34 34 34 34 35 35 36 37 37 38 39 39 40 40 41 41 42 42 42 42 42 42 43 43 43 44 45 46 46 47 47 48 48 49 49 49 49 50 50 49 49 48 47 47 46 46 46 46 46 46 46 46 46 45 44 43 43 43 43 43 43 43 42 41 39 38 37 37 36
33 33 33 33 33 33 33 33 33 33 33 33 34 34 34 34 34 34 34 35 35 36 36 37 37 38 39 39 40 40 41 41 42 42 42 42 42 43 43 43 44 44 45 45 46 47 47 48 48 49 49 49 49 49 49 49 49 48 48 47 46 46 45 46 46 46 46 46 46 45 45 44 43 43 42 43 43 43 42 42 41 40 39 38 37 36
34 34 34 34 33 33 33 33 33 33 33 33 33 34 34 34 34 35 35 36 36 36 37 38 38 39 39 40 40 41 41 41 42 42 42 42 43 43 44 44 45 45 45 46 46 47 48 48 49 49 49 49 49 49 49 48 48 47 47 46 46 45 45 46 46 46 46 46 46 45 45 44 43 42 42 42 42 43 42 42 41 40 39 38 37 36
35 35 35 35 35 34 34 34 34 34 34 34 34 34 34 34 35 35 36 36 37 37 38 38 39 39 40 40 41 41 41 42 42 42 43 43 43 44 44 45 45 45 46 46 47 47 48 48 49 49 49 49 48 48 48 47 47 46 46 46 45 45 45 46 46 46 46 46 46 45 45 44 43 42 42 42 42 42 42 42 41 40 39 38 37 37
36 36 36 36 36 36 36 35 35 35 35 35 35 35 35 35 36 36 37 37 37 38 38 39 39 40 40 40 41 41 42 42 42 43 43 44 44 45 45 45 45 46 46 46 47 47 48 48 48 48 48 48 48 47 47 47 46 46 45 45 45 45 46 46 46 46 46 46 46 45 45 44 43 43 42 42 42 42 42 42 41 40 39 38 38 37
37 37 37 37 36 36 36 36 36 36 36 36 36 36 36 36 37 37 37 38 38 38 38 39 39 39 40 41 41 42 42 43 43 44 44 44 45 45 45 45 45 45 46 46 47 47 48 48 48 48 47 47 47 47 46 46 45 45 45 45 45 46 46 46 46 46 46 46 46 45 45 44 43 43 42 42 42 42 42 42 41 40 39 38 38 37
37 37 36 36 36 36 36 36 36 36 36 36 36 37 37 37 38 38 38 38 38 38 38 39 39 40 41 41 42 43 43 44 44 44 44 44 45 45 45 45 45 45 45 46 46 47 47 47 47 47 47 46 46 46 46 45 45 45 45 46 46 46 46 47 47 47 46 46 46 45 45 44 43 43 42 42 42 42 41 41 41 40 39 39 38 37
36 36 35 35 35 35 35 35 35 36 36 36 37 37 37 38 38 38 38 38 38 38 39 39 40 41 42 42 43 44 44 45 45 44 44 44 44 44 44 44 44 44 45 45 46 46 46 46 46 46 46 45 45 45 46 46 46 46 46 46 47 47 47 47 47 47 46 46 46 45 44 44 43 43 42 42 42 41 41 41 41 40 39 39 38 37
35 34 34 34 34 34 34 34 35 35 36 37 37 37 38 38 38 39 39 39 39 39 40 41 41 42 43 44 44 45 45 45 45 44 44 43 43 43 43 43 43 44 44 45 45 45 45 44 45 45 45 45 45 45 46 46 47 47 47 48 48 48 48 47 47 47 46 46 45 45 44 44 43 43 42 42 41 41 41 41 40 40 39 39 38 37
Wind_Direction
287 287 287 287 287 287 286 286 285 284 282 281 281 281 282 283 285 287 289 290 292 294 295 296 296 296 296 296 297 297 297 297 296 295 294 293 293 293 293 294 294 293 293 293 294 294 295 296 297 298 299 301 303 305 307 309 310 311 312 313 314 315 315 316 317 318 319 320 320 320 320 320 319 318 317 316 314 311 309 306 303 299 296 293 291 289
287 287 287 286 286 286 285 285 284 282 281 281 280 281 282 284 286 288 290 291 293 294 295 296 296 296 295 296 296 296 296 295 294 293 293 292 292 292 293 293 293 292 292 293 293 294 295 296 297 298 299 301 302 304 306 308 309 310 311 311 312 313 313 314 315 316 316 317 317 318 318 318 318 317 316 315 314 312 310 308 306 303 300 297 293 290
286 286 286 286 285 285 284 283 282 281 280 280 281 282 283 285 287 289 290 292 293 294 295 295 295 295 295 295 295 295 294 294 293 292 291 291 291 292 292 292 292 292 292 292 293 294 295 296 296 297 299 300 302 304 306 307 308 309 310 310 311 311 312 313 313 314 314 315 315 315 316 316 315 315 314 313 313 312 310 309 307 305 303 300 297 294
286 286 286 285 285 284 283 282 281 280 280 280 281 283 284 286 287 289 291 293 294 294 295 295 294 294 294 294 294 293 293 291 290 290 289 290 290 291 291 291 291 291 291 292 293 294 295 295 296 297 299 300 302 304 305 307 308 308 309 309 309 310 311 311 312 312 313 313 313 313 313 313 313 313 312 312 311 310 309 308 307 306 304 302 300 298
286 286 285 285 284 283 282 281 280 280 280 281 282 283 285 286 288 290 291 293 294 294 294 294 293 293 292 292 292 291 290 289 288 288 288 289 289 290 290 290 290 291 291 292 293 294 295 296 297 298 299 300 302 303 305 306 306 307 307 308 308 308 309 309 310 310 311 311 311 311 311 311 310 310 310 309 309 308 307 307 306 305 303 302 301 299
286 285 285 284 283 282 281 281 280 280 281 282 283 284 285 287 288 290 292 293 294 294 293 292 292 291 291 291 290 290 288 287 287 287 287 288 288 289 289 290 290 291 292 293 294 295 296 296 297 298 299 300 301 302 303 304 305 305 306 306 307 307 307 308 308 309 309 309 309 309 308 308 308 307 307 307 306 306 305 305 304 303 302 301 300 299
285 285 284 283 282 282 281 281 280 281 282 282 283 284 286 287 289 291 292 293 293 293 292 291 291 290 290 290 289 288 287 286 286 286 287 288 289 289 290 290 291 292 293 294 295 296 296 296 297 297 298 299 300 301 302 303 303 304 304 305 305 306 306 306 307 307 307 307 307 307 306 306 306 305 305 305 304 304 303 303 302 302 301 300 299 298
285 284 284 283 282 282 281 281 281 281 282 283 284 285 286 288 289 290 292 292 292 292 291 290 289 289 289 289 288 287 286 286 286 287 287 288 289 290 290 291 292 293 294 294 295 296 296 296 296 297 297 298 299 300 301 301 302 303 303 304 304 305 305 305 306 306 306 306 306 305 305 305 304 304 304 303 303 303 302 302 301 300 300 299 298 297
285 284 283 283 282 282 282 282 282 282 283 284 285 286 287 288 289 290 291 291 291 290 290 289 288 288 287 287 286 285 285 285 286 287 288 288 289 290 291 291 292 293 294 294 295 295 295 295 295 296 297 297 298 299 300 301 301 302 303 303 304 304 304 305 305 305 305 305 304 304 304 304 303 303 303 303 302 302 302 301 300 300 299 298 297 296
284 284 283 283 282 282 282 283 283 283 284 284 286 287 288 289 290 290 290 290 289 289 288 288 287 287 286 285 285 284 284 284 285 286 287 288 289 290 290 291 292 293 293 294 294 294 294 295 295 296 296 297 298 299 299 300 301 302 302 303 303 304 304 304 304 304 304 304 304 303 303 303 303 302 302 302 302 301 301 300 300 299 298 298 297 296
284 284 283 283 283 283 283 283 284 284 285 286 286 288 289 289 290 290 289 288 288 288 287 287 286 285 285 284 283 283 283 283 284 286 287 287 288 289 290 291 292 292 293 293 294 294 294 295 295 295 296 297 298 298 299 300 301 302 302 303 303 303 303 304 304 304 304 303 303 303 303 303 302 302 302 302 301 301 300 300 299 298 298 297 296 295
285 284 284 284 283 284 284 284 284 285 286 287 288 289 289 289 289 289 288 287 287 286 286 285 285 284 283 282 282 281 282 283 284 285 286 287 288 289 290 291 292 292 293 293 294 294 294 295 295 295 296 297 298 298 299 300 301 302 302 303 303 303 304 304 304 304 304 303 303 303 303 303 303 302 302 302 301 301 300 299 298 298 297 296 295 294
285 285 284 284 284 284 284 285 285 286 287 288 289 289 289 289 288 287 286 286 285 285 285 284 283 282 281 281 280 281 281 282 283 284 285 286 287 288 290 291 292 293 293 294 294 294 295 295 295 296 296 297 298 299 300 301 302 302 303 303 303 304 304 304 304 304 304 304 303 303 303 303 303 303 302 302 301 301 300 299 298 297 296 295 294 293
285 285 285 285 284 285 285 286 286 287 288 288 289 288 288 288 287 286 285 284 284 284 283 283 282 281 280 279 279 280 281 282 283 284 285 286 287 289 290 291 292 293 294 294 295 295 295 295 295 296 296 297 298 299 300 301 302 303 303 303 304 304 304 304 304 304 304 303 303 303 303 303 303 303 303 302 302 301 300 299 298 297 296 295 294 292
286 285 285 285 285 285 286 287 287 288 288 288 288 288 287 286 285 284 284 283 283 283 283 282 281 280 280 279 279 280 281 282 283 284 285 286 288 289 291 292 293 294 295 295 295 295 295 295 296 296 297 298 299 300 301 302 302 303 303 303 304 304 304 304 304 303 303 304 304 304 304 304 304 304 303 303 302 301 300 299 298 297 296 295 293 292
286 286 285 286 286 286 287 287 288 288 288 288 287 286 285 284 283 283 282 282 282 282 282 281 280 279 279 278 278 279 280 281 282 283 285 286 288 291 292 293 294 295 295 296 296 296 295 295 295 296 297 298 299 300 301 302 302 303 303 303 304 304 304 304 304 304 304 304 304 304 304 305 305 304 304 304 303 302 301 300 298 297 296 295 293 292
286 286 286 286 287 287 288 288 288 287 287 287 286 285 284 283 283 282 282 282 282 282 281 280 279 278 278 278 278 278 279 281 282 283 285 287 289 291 293 294 295 296 296 296 296 296 295 295 295 296 297 298 299 300 301 302 302 303 303 304 304 304 304 304 304 304 304 304 305 305 305 305 305 305 305 304 303 302 301 300 299 297 296 295 294 293
286 287 287 287 287 288 288 288 288 287 287 286 285 284 283 283 282 282 282 282 282 281 281 280 278 278 277 278 278 278 279 280 281 283 285 287 289 292 293 295 296 296 297 297 296 296 295 295 296 296 297 298 299 300 301 302 303 303 304 304 304 304 304 304 304 305 305 305 305 306 306 306 306 306 306 305 304 303 302 300 299 298 296 295 294 293
287 288 288 288 288 288 288 288 287 287 286 285 284 283 283 283 282 283 283 282 282 281 280 279 278 277 277 277 278 278 279 280 281 283 285 287 290 292 294 295 296 297 297 297 297 296 296 295 296 296 297 298 300 301 302 303 303 304 304 304 304 305 305 305 305 305 306 306 306 307 307 307 307 307 306 305 304 303 302 301 299 298 297 296 295 293
289 289 289 289 289 289 288 288 287 286 286 285 284 283 283 283 283 283 283 282 282 281 280 279 277 277 276 277 277 278 279 280 281 283 285 287 290 292 294 295 296 297 297 297 297 296 296 296 296 297 298 299 300 301 302 303 303 304 304 305 305 305 305 305 306 306 306 307 307 308 308 308 308 308 307 306 305 304 302 301 300 299 297 296 295 294
290 290 290 290 290 289 288 287 287 286 285 284 284 283 283 283 283 283 282 282 281 280 279 277 277 276 276 276 277 278 279 280 282 283 285 288 290 292 294 296 297 297 298 298 297 297 296 296 297 297 298 300 300 301 302 303 304 304 304 305 305 305 306 306 306 307 307 307 308 308 309 309 308 308 307 306 305 304 303 301 300 299 298 297 296 294
290 290 291 290 290 289 288 287 286 285 285 284 284 283 283 283 283 283 282 281 280 279 278 277 276 276 276 276 277 278 279 281 282 284 286 288 290 292 295 296 297 298 298 298 298 297 297 297 298 298 299 300 301 302 302 303 304 304 305 305 306 306 306 307 307 307 308 308 309 309 309 309 309 308 308 307 305 304 303 302 301 300 299 298 296 295
291 291 291 290 289 289 288 287 286 285 285 284 284 284 283 283 283 282 281 280 279 278 277 276 275 275 276 277 278 279 280 281 283 284 286 289 291 293 295 296 297 298 299 299 298 298 298 298 298 299 299 300 301 302 302 303 304 304 305 305 306 306 307 307 307 308 308 309 309 309 310 310 309 309 308 307 306 304 303 302 301 301 299 298 296 295
291 291 290 290 289 288 287 286 286 285 285 284 284 284 283 283 282 282 281 280 278 277 276 275 275 276 276 277 278 279 280 281 283 285 287 289 291 293 295 297 298 299 299 299 299 299 299 299 299 300 300 301 301 302 303 303 304 304 305 306 306 307 307 307 308 308 309 309 310 310 310 310 310 309 308 307 306 305 304 303 302 301 300 298 296 294
291 290 290 289 289 288 287 286 286 285 285 284 284 283 283 282 282 281 280 279 278 277 276 276 276 276 276 277 278 279 280 282 283 285 288 290 292 294 296 297 298 299 299 300 300 300 300 300 300 300 301 301 302 302 303 303 304 305 306 306 307 307 307 308 308 309 309 310 310 310 311 310 310 309 308 307 306 305 304 304 303 301 300 298 296 294
291 290 290 289 289 288 287 287 286 286 285 284 284 283 283 282 281 280 279 278 277 277 276 276 276 277 277 278 278 280 281 282 284 286 288 290 292 294 295 297 298 299 299 300 300 300 300 300 301 301 302 302 303 303 303 304 305 305 306 307 307 308 308 308 309 309 310 310 310 311 311 311 310 309 309 308 307 306 305 304 303 302 300 298 295 293
291 291 291 290 290 289 288 287 287 286 285 285 284 283 282 281 280 280 279 278 278 277 277 277 277 277 278 278 279 280 281 283 284 286 288 290 292 294 295 297 298 299 299 300 301 301 301 301 302 302 302 303 303 304 304 305 306 306 307 307 308 308 308 309 309 309 310 310 311 311 311 311 310 310 309 308 307 306 305 304 303 302 299 297 295 293
292 292 291 291 291 290 289 288 288 287 286 285 284 283 282 281 280 280 279 278 278 277 277 278 278 278 278 279 280 280 281 283 284 286 288 290 292 293 295 297 298 299 300 300 301 301 302 302 302 303 303 304 304 305 305 306 306 307 307 308 308 308 309 309 309 310 310 311 311 311 311 311 311 310 309 308 307 307 306 305 303 301 299 297 294 293
293 292 292 292 291 291 290 289 288 287 286 285 284 283 282 281 280 280 279 278 278 278 278 278 278 278 279 279 279 280 281 283 284 286 288 290 292 294 296 297 298 299 300 301 301 302 302 302 303 303 304 304 305 306 306 307 307 307 308 308 309 309 309 309 310 310 311 311 311 312 311 311 311 310 309 309 308 307 306 305 303 301 299 296 294 293
293 293 292 292 291 291 290 289 288 287 286 285 284 283 282 281 281 280 280 279 279 278 278 278 278 278 278 279 280 281 282 283 285 287 289 291 293 295 296 298 299 300 301 301 302 302 302 303 303 304 304 305 305 306 307 307 308 308 308 309 309 309 310 310 310 311 311 311 312 312 312 312 311 311 310 309 308 307 307 305 304 301 299 296 294 294
292 292 292 292 291 290 289 289 287 286 286 285 284 283 283 282 281 281 280 280 279 279 279 279 279 279 279 280 281 282 283 285 286 288 290 292 294 295 297 298 299 300 301 301 302 302 302 303 303 304 305 305 306 307 307 308 308 309 309 309 309 310 310 310 310 311 311 311 312 312 312 312 311 311 310 309 309 308 307 306 303 301 298 296 295 294
292 292 292 291 291 290 289 288 287 287 286 285 284 284 283 283 282 282 282 281 281 280 280 280 280 281 281 282 283 284 286 287 289 290 292 293 295 296 297 298 299 300 301 301 301 302 303 303 304 304 305 306 307 307 308 308 309 309 310 310 310 310 310 310 311 311 311 312 312 312 312 312 312 311 310 310 309 308 307 306 303 301 298 296 295 295
291 291 292 291 291 290 289 289 288 287 286 286 285 285 284 284 284 283 283 282 282 282 282 282 282 282 283 284 285 286 288 289 291 292 293 294 295 296 298 298 299 300 301 301 301 302 302 303 304 305 306 306 307 308 309 309 309 310 310 310 310 310 310 310 311 311 311 312 312 312 313 312 312 311 311 310 309 309 308 306 303 301 298 296 296 296
291 291 291 291 291 290 290 289 288 288 287 286 286 285 285 284 284 284 283 283 283 283 283 283 284 284 285 286 287 288 289 290 292 293 294 295 296 297 298 298 299 300 300 301 301 302 302 303 304 305 306 307 307 308 309 309 310 310 310 310 310 310 310 310 311 311 311 312 312 313 313 313 312 311 311 310 310 309 308 306 303 301 298 297 296 297
290 291 291 291 290 290 290 289 288 288 287 287 286 286 285 285 284 284 284 284 284 284 284 285 285 286 287 288 289 289 290 291 292 293 294 295 296 297 298 298 299 300 300 301 301 302 302 303 304 305 306 307 308 309 309 310 310 310 310 310 310 310 310 310 310 311 311 312 312 313 313 312 312 311 311 310 310 309 308 306 303 300 298 297 297 297
290 290 290 290 290 290 289 289 288 288 287 287 286 286 285 285 285 285 285 285 285 286 286 287 287 288 288 289 290 291 291 292 293 294 295 296 297 297 298 299 299 300 300 301 301 302 303 303 304 305 306 307 308 309 309 310 310 310 310 310 310 310 310 310 310 310 311 312 312 313 312 312 311 311 310 310 309 308 307 305 302 300 297 296 296 297
290 290 290 290 290 290 289 289 288 288 288 288 287 287 286 286 286 286 286 286 287 287 287 288 288 289 289 290 291 291 292 293 294 295 295 296 297 298 298 299 299 300 300 301 301 302 303 303 304 305 306 307 308 309 309 310 310 310 310 310 310 310 310 310 310 311 311 312 312 313 313 312 311 310 309 309 309 308 307 304 302 299 297 295 296 296
290 290 290 290 290 290 289 289 289 288 288 288 288 288 287 287 287 287 287 287 288 288 288 288 289 289 290 291 291 292 293 294 294 295 296 297 298 298 298 299 300 300 301 301 301 302 303 303 304 305 306 307 307 308 309 310 310 310 310 310 310 310 310 310 310 311 312 312 313 313 313 312 311 310 309 309 309 308 307 304 301 299 296 295 295 296
289 290 290 290 290 290 289 289 289 288 288 288 288 288 288 288 288 288 288 288 288 288 288 289 289 290 291 292 292 293 294 294 295 296 296 297 298 298 299 299 300 300 301 301 302 302 303 303 304 305 306 307 307 308 309 309 309 310 310 310 309 309 310 310 311 311 312 313 314 314 313 313 312 311 310 309 309 308 307 305 302 299 296 295 295 296
289 290 290 290 290 289 289 288 288 288 288 288 288 288 288 288 288 288 287 287 288 288 289 290 290 291 292 293 294 294 295 295 295 296 297 297 298 298 299 299 300 300 301 301 302 302 303 304 304 305 306 307 307 308 308 309 309 309 309 309 309 309 309 310 311 312 313 313 314 314 313 313 312 311 310 310 310 309 308 306 303 300 297 295 295 295
289 289 290 289 289 288 288 287 287 287 287 287 287 287 287 287 287 287 287 287 288 289 290 291 291 292 293 293 294 294 295 295 296 296 297 297 298 298 299 299 300 300 301 301 302 302 303 304 304 305 306 306 307 308 308 308 308 309 309 308 308 309 309 310 311 312 313 314 314 314 313 313 312 311 310 310 310 309 308 306 304 300 298 296 295 295
288 289 289 289 288 288 287 286 286 286 287 287 287 287 287 287 287 287 288 288 289 290 291 292 292 293 293 294 294 294 295 295 296 296 297 297 298 298 299 299 300 300 301 301 302 303 303 304 304 305 306 306 307 307 307 308 308 308 308 308 308 308 309 310 311 312 313 313 314 314 313 313 312 311 310 310 310 310 309 307 304 301 298 296 295 295
288 288 288 288 287 287 286 286 285 286 286 286 286 287 287 287 287 288 289 289 290 291 292 292 293 293 294 294 294 294 295 295 296 296 297 297 298 298 299 299 300 301 301 301 302 303 303 304 304 305 305 306 306 306 307 307 307 307 307 307 308 308 309 310 311 312 313 313 314 314 313 312 312 311 310 310 310 310 309 307 305 302 298 296 295 295
286 287 287 287 287 286 286 286 285 285 286 286 286 287 287 288 288 289 290 290 291 292 292 293 293 293 294 294 294 295 295 295 296 297 297 297 298 299 299 300 300 300 301 302 302 303 304 304 304 305 305 305 306 306 306 307 307 307 307 307 307 308 308 310 311 312 313 313 313 313 313 312 311 310 310 310 310 310 309 308 305 302 299 296 295 295
285 285 286 286 286 286 286 286 286 286 287 287 287 288 288 289 289 290 290 291 292 292 292 293 293 293 294 294 295 295 296 296 297 297 298 298 298 299 299 300 300 301 301 302 302 303 304 304 304 304 305 305 305 306 306 306 306 306 306 307 307 308 308 309 311 311 312 313 313 313 312 311 311 310 310 310 310 309 309 308 305 302 299 296 295 294
284 284 285 285 286 286 287 287 287 288 288 288 288 289 289 289 290 290 291 291 292 292 292 293 293 294 294 295 295 296 296 297 297 298 298 299 299 299 300 300 300 300 301 302 302 303 304 304 304 304 304 305 305 305 305 306 306 306 306 307 307 308 309 310 311 311 312 312 313 312 312 311 310 310 309 309 309 309 309 308 306 303 299 297 295 294
284 285 285 286 286 286 287 287 288 288 288 288 289 289 289 289 289 290 290 291 291 292 292 292 293 294 295 295 296 297 297 298 298 298 299 299 300 300 300 300 300 300 301 302 303 303 304 304 304 304 304 305 305 305 305 305 305 306 306 306 307 308 309 310 311 311 312 312 312 312 311 311 310 309 309 309 309 309 309 308 306 303 300 297 295 294
285 286 286 286 286 286 287 287 287 287 288 288 288 288 288 289 289 290 290 290 291 291 292 293 293 294 295 296 297 297 298 298 299 299 299 300 300 300 301 301 301 301 302 302 303 303 304 304 304 304 304 304 304 304 305 305 305 305 306 306 307 308 309 309 310 311 311 311 311 311 311 310 310 309 309 309 309 309 309 308 306 303 300 297 295 293
286 287 287 287 286 286 286 286 286 286 287 287 287 288 288 288 289 289 290 290 291 291 292 293 294 295 296 297 297 298 298 298 298 299 299 299 300 300 301 301 302 302 302 303 303 303 304 304 304 304 304 304 304 304 304 305 305 305 306 306 307 308 308 309 310 310 311 311 311 310 310 309 309 308 308 308 309 309 309 307 306 303 300 297 295 293
287 286 286 286 286 286 285 286 286 286 286 287 287 288 288 289 289 290 290 291 291 292 293 294 295 296 297 297 298 298 298 298 298 298 298 299 299 300 300 301 302 302 303 303 303 304 304 304 304 304 304 304 304 304 304 304 305 305 305 306 307 307 308 308 309 310 310 310 310 310 309 309 308 308 307 308 308 308 308 307 306 303 300 297 294 292
286 286 285 285 284 284 285 285 285 286 286 287 288 289 289 290 290 291 291 291 292 293 294 295 296 296 297 297 298 298 298 297 298 298 298 298 299 299 300 301 302 302 303 303 304 304 305 305 305 305 304 305 305 305 305 305 305 305 305 306 306 307 307 308 308 309 309 309 309 309 308 308 307 307 307 307 308 308 308 307 305 303 300 297 294 291
Height
5715 5715 5714 5713 5712 5711 5711 5710 5710 5709 5709 5708 5708 5708 5707 5707 5706 5706 5706 5705 5705 5704 5704 5703 5702 5701 5701 5700 5700 5699 5698 5697 5696 5696 5695 5695 5694 5693 5692 5692 5691 5690 5690 5689 5688 5687 5686 5685 5684 5683 5682 5681 5680 5680 5679 5678 5676 5675 5674 5673 5672 5671 5670 5669 5668 5667 5666 5666 5665 5665 5664 5663 5663 5662 5662 5661 5661 5661 5661 5661 5661 5661 5661 5661 5660 5660
5713 5712 5711 5710 5710 5709 5708 5708 5707 5707 5706 5706 5705 5705 5705 5705 5704 5704 5703 5703 5702 5702 5701 5700 5700 5699 5698 5698 5697 5696 5695 5695 5694 5693 5693 5692 5692 5691 5690 5690 5689 5688 5687 5686 5686 5685 5684 5683 5682 5681 5680 5680 5679 5678 5677 5676 5675 5674 5673 5672 5671 5670 5669 5668 5667 5666 5665 5664 5663 5662 5662 5661 5661 5660 5660 5660 5659 5659 5659 5658 5658 5658 5658 5659 5659 5659
5710 5709 5709 5708 5707 5706 5706 5705 5705 5705 5704 5704 5703 5703 5702 5702 5701 5701 5700 5700 5700 5699 5698 5698 5697 5696 5696 5695 5695 5694 5693 5692 5692 5691 5690 5690 5689 5689 5688 5687 5686 5686 5685 5684 5684 5683 5682 5681 5680 5679 5678 5677 5677 5676 5675 5674 5673 5672 5671 5670 5669 5668 5667 5666 5665 5664 5663 5662 5661 5661 5660 5659 5659 5658 5658 5657 5657 5657 5656 5656 5656 5656 5656 5656 5656 5656
5708 5707 5706 5705 5705 5704 5704 5703 5702 5702 5702 5701 5701 5700 5700 5700 5699 5699 5698 5698 5697 5696 5696 5695 5695 5694 5693 5693 5692 5691 5691 5690 5690 5689 5688 5688 5687 5686 5686 5685 5684 5684 5683 5682 5681 5680 5680 5679 5678 5677 5676 5675 5675 5674 5673 5672 5671 5670 5669 5668 5668 5667 5666 5665 5664 5663 5662 5661 5660 5660 5659 5658 5657 5656 5656 5655 5655 5655 5654 5654 5654 5653 5653 5653 5653 5653
5705 5704 5703 5703 5702 5701 5701 5700 5700 5700 5699 5699 5698 5698 5697 5697 5697 5696 5695 5695 5695 5694 5693 5692 5692 5691 5691 5690 5690 5689 5689 5688 5687 5687 5686 5685 5685 5684 5684 5683 5682 5681 5680 5680 5679 5678 5677 5676 5675 5675 5674 5673 5673 5672 5671 5670 5669 5669 5668 5667 5666 5665 5664 5663 5663 5662 5661 5660 5659 5658 5657 5657 5656 5655 5655 5654 5653 5653 5652 5652 5651 5651 5650 5650 5650 5650
5703 5702 5701 5700 5700 5699 5699 5698 5698 5697 5697 5696 5696 5695 5695 5695 5694 5694 5693 5692 5692 5691 5690 5690 5689 5689 5688 5688 5687 5687 5686 5686 5685 5685 5684 5683 5683 5682 5681 5680 5680 5679 5678 5677 5676 5675 5675 5674 5673 5672 5672 5671 5670 5670 5669 5668 5668 5667 5666 5665 5664 5663 5663 5662 5661 5660 5660 5659 5658 5657 5656 5655 5655 5654 5653 5652 5651 5651 5650 5650 5649 5649 5648 5647 5647 5647
5700 5699 5698 5698 5697 5696 5696 5695 5695 5695 5694 5694 5693 5693 5693 5692 5691 5691 5690 5690 5689 5689 5688 5687 5687 5686 5686 5685 5685 5684 5684 5683 5683 5682 5681 5681 5680 5679 5679 5678 5677 5676 5675 5675 5674 5673 5672 5672 5671 5670 5670 5669 5669 5668 5667 5666 5666 5665 5664 5663 5662 5661 5661 5660 5659 5659 5658 5657 5656 5655 5655 5654 5653 5652 5651 5650 5650 5649 5648 5647 5647 5646 5645 5645 5644 5644
5697 5696 5696 5695 5695 5694 5693 5693 5693 5692 5692 5691 5691 5690 5690 5690 5689 5689 5688 5687 5686 5686 5685 5685 5684 5684 5683 5683 5682 5681 5681 5680 5680 5679 5679 5678 5677 5677 5676 5675 5675 5674 5673 5672 5672 5671 5670 5670 5669 5668 5668 5667 5667 5666 5665 5665 5664 5663 5662 5661 5660 5660 5659 5658 5657 5656 5656 5655 5654 5653 5652 5651 5651 5650 5649 5648 5647 5646 5646 5645 5645 5644 5643 5642 5641 5641
5695 5694 5693 5693 5693 5692 5691 5690 5690 5690 5690 5689 5688 5688 5688 5687 5686 5686 5685 5685 5684 5683 5683 5682 5682 5681 5680 5680 5680 5679 5679 5678 5677 5677 5676 5675 5675 5674 5674 5673 5672 5671 5671 5670 5670 5669 5668 5667 5667 5666 5665 5665 5665 5664 5663 5662 5661 5661 5660 5659 5658 5657 5657 5656 5655 5654 5654 5653 5652 5651 5650 5649 5648 5647 5647 5646 5645 5644 5643 5642 5642 5641 5640 5639 5639 5638
5692 5691 5691 5690 5690 5690 5689 5688 5688 5687 5687 5686 5685 5685 5685 5685 5684 5683 5683 5682 5681 5681 5680 5680 5679 5679 5678 5678 5677 5677 5676 5675 5675 5675 5674 5673 5673 5672 5671 5671 5670 5670 5669 5668 5667 5666 5666 5665 5665 5664 5663 5663 5662 5661 5661 5660 5659 5658 5658 5657 5656 5655 5655 5654 5653 5652 5651 5650 5649 5649 5648 5647 5646 5645 5644 5643 5642 5641 5640 5640 5639 5638 5637 5636 5635 5635
5689 5689 5689 5688 5687 5687 5686 5686 5685 5684 5684 5684 5683 5682 5682 5682 5681 5680 5680 5679 5679 5678 5678 5677 5677 5676 5675 5675 5675 5675 5674 5673 5673 5672 5672 5671 5670 5670 5669 5669 5668 5667 5666 5666 5665 5664 5664 5663 5662 5662 5661 5660 5660 5659 5659 5658 5657 5656 5655 5655 5654 5653 5652 5651 5650 5650 5649 5648 5647 5646 5645 5644 5643 5642 5641 5640 5640 5639 5638 5636 5635 5635 5634 5633 5632 5631
5687 5686 5686 5685 5685 5684 5684 5683 5682 5682 5681 5681 5680 5680 5679 5679 5678 5678 5677 5676 5676 5675 5675 5675 5674 5674 5674 5673 5672 5672 5671 5671 5670 5670 5669 5669 5668 5668 5667 5666 5666 5665 5664 5664 5663 5662 5661 5660 5660 5659 5659 5658 5657 5657 5656 5655 5655 5654 5653 5652 5651 5650 5649 5649 5648 5647 5646 5645 5644 5643 5642 5641 5640 5639 5638 5637 5636 5635 5635 5633 5632 5631 5630 5629 5628 5627
5684 5684 5683 5683 5682 5682 5681 5680 5680 5680 5679 5678 5678 5677 5676 5675 5675 5675 5675 5674 5673 5673 5673 5672 5671 5671 5671 5671 5670 5670 5669 5669 5668 5668 5667 5666 5666 5665 5665 5664 5664 5663 5662 5661 5660 5660 5659 5658 5657 5657 5656 5655 5655 5654 5654 5653 5652 5651 5650 5649 5649 5648 5647 5646 5645 5644 5643 5642 5641 5640 5639 5638 5637 5636 5635 5634 5633 5632 5631 5630 5629 5628 5627 5626 5625 5624
5682 5681 5681 5680 5680 5679 5679 5678 5677 5676 5676 5675 5675 5674 5674 5673 5672 5672 5672 5671 5671 5670 5670 5670 5669 5669 5669 5668 5668 5667 5667 5666 5666 5665 5665 5664 5664 5663 5663 5662 5661 5660 5660 5659 5658 5657 5656 5655 5655 5654 5654 5653 5652 5652 5651 5650 5650 5649 5648 5647 5646 5645 5644 5643 5642 5641 5640 5639 5638 5637 5636 5635 5634 5633 5632 5631 5630 5629 5627 5626 5625 5624 5623 5622 5621 5620
5679 5679 5678 5677 5677 5676 5676 5675 5675 5674 5673 5673 5672 5671 5671 5670 5670 5670 5669 5669 5668 5668 5668 5667 5667 5666 5666 5666 5665 5665 5664 5664 5663 5663 5662 5662 5661 5661 5660 5660 5659 5658 5657 5656 5655 5655 5654 5653 5652 5651 5651 5650 5650 5649 5649 5648 5647 5646 5645 5644 5643 5642 5641 5640 5639 5638 5637 5636 5635 5634 5633 5632 5631 5630 5629 5627 5626 5625 5624 5622 5621 5620 5619 5618 5617 5615
5676 5676 5675 5675 5674 5673 5673 5672 5672 5671 5670 5670 5669 5669 5668 5668 5667 5667 5667 5666 5666 5666 5665 5665 5665 5664 5664 5663 5663 5663 5662 5661 5661 5661 5660 5660 5659 5659 5658 5657 5656 5656 5655 5654 5653 5652 5651 5651 5650 5649 5649 5648 5648 5647 5646 5645 5645 5644 5643 5641 5640 5640 5639 5637 5636 5635 5634 5633 5632 5631 5630 5629 5627 5626 5625 5624 5622 5621 5620 5618 5617 5616 5615 5613 5612 5611
5674 5673 5672 5672 5671 5670 5670 5670 5669 5668 5668 5667 5666 5666 5665 5665 5665 5665 5664 5664 5664 5663 5663 5662 5662 5661 5661 5661 5660 5660 5660 5659 5659 5658 5658 5657 5657 5656 5656 5655 5654 5653 5652 5651 5651 5650 5649 5648 5648 5647 5646 5646 5645 5645 5644 5643 5642 5641 5640 5639 5638 5637 5635 5635 5633 5632 5631 5630 5629 5627 5626 5625 5624 5622 5621 5620 5618 5617 5615 5614 5612 5611 5610 5609 5607 5606
5671 5670 5670 5669 5668 5668 5667 5667 5666 5665 5665 5664 5664 5663 5663 5662 5662 5662 5662 5661 5661 5660 5660 5660 5660 5659 5659 5658 5658 5658 5658 5657 5656 5656 5656 5655 5655 5654 5653 5652 5651 5650 5650 5649 5648 5647 5646 5646 5645 5645 5644 5643 5643 5642 5641 5640 5639 5638 5637 5636 5635 5634 5632 5631 5630 5629 5628 5626 5625 5624 5623 5621 5620 5618 5617 5615 5614 5612 5611 5610 5608 5606 5605 5604 5602 5601
5668 5667 5667 5666 5665 5665 5664 5664 5663 5663 5662 5662 5661 5661 5660 5660 5660 5660 5659 5659 5659 5658 5658 5657 5657 5657 5657 5656 5655 5655 5655 5654 5654 5654 5653 5653 5652 5651 5651 5650 5649 5648 5647 5647 5646 5645 5644 5643 5643 5642 5641 5641 5640 5639 5638 5637 5636 5635 5634 5633 5631 5630 5629 5628 5627 5625 5624 5623 5622 5620 5619 5617 5616 5614 5613 5611 5610 5608 5606 5605 5603 5602 5600 5599 5597 5596
5665 5665 5664 5664 5663 5662 5662 5661 5661 5660 5660 5659 5659 5658 5658 5658 5657 5657 5657 5656 5656 5656 5655 5655 5655 5655 5654 5654 5653 5652 5652 5652 5651 5651 5651 5650 5650 5649 5648 5647 5646 5645 5645 5644 5643 5642 5641 5640 5640 5639 5639 5638 5637 5636 5635 5634 5633 5632 5630 5630 5628 5627 5626 5625 5623 5622 5621 5619 5618 5616 5615 5613 5612 5610 5608 5607 5605 5603 5602 5600 5599 5597 5595 5594 5592 5591
5662 5662 5661 5661 5660 5660 5659 5659 5658 5657 5657 5656 5656 5656 5655 5655 5655 5655 5654 5654 5654 5653 5653 5653 5652 5652 5652 5651 5651 5650 5650 5649 5649 5649 5648 5648 5647 5646 5646 5645 5644 5643 5642 5641 5640 5640 5639 5638 5637 5636 5635 5635 5634 5633 5632 5631 5630 5629 5627 5626 5625 5624 5622 5621 5620 5618 5617 5615 5614 5612 5611 5609 5608 5606 5604 5602 5600 5599 5597 5595 5594 5592 5591 5589 5587 5586
5660 5660 5659 5658 5658 5658 5657 5656 5655 5655 5655 5654 5654 5653 5653 5653 5652 5652 5652 5651 5651 5651 5650 5650 5650 5650 5649 5649 5648 5647 5647 5646 5646 5646 5645 5645 5644 5644 5643 5642 5641 5640 5640 5639 5638 5637 5636 5635 5634 5633 5632 5632 5631 5630 5629 5627 5626 5625 5624 5623 5621 5620 5619 5618 5616 5615 5613 5612 5610 5609 5607 5605 5603 5601 5600 5598 5596 5594 5593 5591 5589 5588 5586 5584 5582 5581
5658 5657 5656 5656 5655 5655 5655 5654 5653 5653 5652 5652 5651 5651 5650 5650 5650 5649 5649 5649 5648 5648 5648 5647 5647 5647 5646 5646 5645 5645 5645 5644 5643 5643 5642 5641 5641 5641 5640 5639 5638 5638 5637 5636 5635 5634 5633 5632 5631 5630 5629 5628 5627 5626 5625 5624 5623 5622 5620 5619 5618 5617 5615 5614 5612 5611 5610 5608 5606 5605 5603 5601 5599 5597 5595 5593 5592 5590 5588 5586 5585 5583 5581 5580 5578 5576
5655 5655 5654 5654 5653 5653 5652 5651 5651 5650 5650 5649 5649 5648 5648 5647 5647 5646 5646 5646 5645 5645 5645 5645 5645 5644 5644 5644 5643 5642 5642 5641 5640 5640 5639 5639 5638 5638 5637 5636 5635 5635 5634 5633 5632 5631 5630 5629 5628 5627 5626 5625 5624 5623 5622 5621 5620 5618 5617 5616 5615 5613 5612 5610 5609 5607 5605 5604 5602 5600 5599 5597 5595 5593 5591 5589 5587 5585 5584 5582 5580 5578 5576 5575 5573 5571
5653 5652 5652 5651 5651 5650 5650 5649 5648 5648 5647 5647 5646 5645 5645 5645 5644 5644 5643 5643 5643 5643 5642 5642 5642 5642 5641 5641 5640 5640 5639 5639 5638 5637 5637 5636 5635 5635 5634 5634 5633 5632 5631 5630 5629 5628 5627 5626 5625 5624 5623 5622 5621 5620 5619 5617 5616 5615 5614 5612 5611 5610 5608 5606 5605 5603 5602 5600 5598 5596 5594 5592 5590 5589 5586 5585 5583 5581 5579 5577 5575 5574 5572 5570 5568 5567
5651 5650 5650 5649 5648 5648 5647 5646 5646 5645 5645 5644 5644 5643 5642 5642 5642 5641 5641 5641 5640 5640 5640 5640 5639 5639 5639 5639 5638 5637 5637 5636 5635 5634 5634 5633 5632 5632 5631 5631 5630 5629 5628 5627 5626 5625 5624 5623 5622 5621 5620 5619 5617 5616 5615 5614 5613 5611 5610 5609 5607 5606 5604 5603 5601 5600 5598 5596 5594 5592 5590 5588 5586 5584 5582 5580 5579 5577 5575 5573 5571 5569 5567 5565 5564 5562
5648 5648 5647 5646 5646 5645 5645 5644 5643 5643 5642 5641 5641 5640 5640 5640 5639 5639 5639 5639 5638 5638 5637 5637 5636 5636 5636 5635 5635 5635 5634 5633 5632 5632 5631 5630 5630 5629 5628 5628 5627 5626 5625 5624 5623 5622 5621 5620 5619 5617 5616 5615 5614 5613 5612 5610 5609 5608 5607 5605 5604 5602 5600 5599 5597 5595 5594 5592 5590 5588 5586 5584 5582 5580 5578 5576 5574 5572 5570 5569 5567 5565 5563 5561 5560 5558
5646 5645 5645 5644 5643 5642 5642 5641 5640 5640 5639 5639 5638 5638 5637 5637 5637 5636 5636 5636 5636 5635 5635 5634 5634 5633 5633 5633 5632 5632 5631 5630 5630 5629 5628 5628 5627 5626 5625 5625 5624 5623 5622 5621 5620 5619 5618 5617 5615 5614 5613 5612 5610 5610 5608 5607 5606 5604 5603 5601 5600 5598 5597 5595 5593 5592 5590 5588 5586 5584 5582 5580 5578 5576 5574 5572 5570 5568 5566 5564 5562 5560 5559 5557 5555 5554
5643 5642 5642 5641 5640 5640 5639 5639 5638 5637 5637 5636 5635 5635 5635 5634 5634 5634 5634 5633 5633 5632 5632 5632 5631 5631 5630 5630 5630 5630 5629 5628 5627 5626 5625 5625 5624 5623 5623 5622 5620 5620 5619 5618 5617 5616 5615 5614 5613 5611 5610 5609 5607 5606 5605 5604 5602 5601 5599 5598 5596 5595 5593 5591 5590 5588 5586 5584 5582 5580 5578 5575 5574 5571 5570 5568 5566 5564 5562 5560 5558 5556 5554 5553 5551 5550
5640 5640 5639 5639 5638 5637 5636 5636 5635 5635 5634 5634 5633 5632 5632 5632 5631 5631 5631 5630 5630 5630 5630 5629 5629 5628 5628 5627 5627 5627 5626 5625 5625 5624 5623 5622 5621 5620 5620 5619 5618 5617 5616 5615 5613 5612 5611 5611 5610 5608 5607 5605 5604 5603 5601 5600 5599 5597 5595 5594 5592 5591 5589 5587 5585 5584 5582 5580 5578 5575 5574 5571 5569 5567 5565 5564 5561 5560 5558 5556 5554 5552 5550 5549 5547 5546
5638 5637 5636 5636 5635 5635 5634 5633 5633 5632 5631 5631 5630 5630 5630 5629 5629 5628 5628 5628 5628 5627 5627 5626 5626 5626 5625 5625 5624 5624 5623 5623 5622 5621 5620 5619 5618 5617 5617 5615 5614 5613 5613 5611 5610 5608 5607 5607 5606 5605 5604 5602 5601 5600 5598 5597 5595 5594 5592 5590 5589 5587 5585 5583 5581 5580 5578 5576 5574 5571 5570 5567 5565 5563 5561 5560 5557 5555 5553 5551 5550 5548 5546 5545 5543 5542
5635 5635 5634 5634 5633 5632 5631 5631 5630 5630 5629 5628 5628 5627 5627 5626 5626 5625 5625 5625 5625 5624 5624 5624 5623 5623 5622 5622 5621 5620 5620 5619 5619 5618 5617 5616 5615 5614 5613 5612 5611 5610 5609 5608 5607 5605 5604 5603 5602 5602 5601 5599 5598 5596 5595 5594 5592 5590 5588 5587 5585 5583 5581 5580 5578 5575 5574 5572 5570 5568 5565 5563 5561 5559 5557 5555 5553 5551 5549 5547 5545 5544 5542 5541 5539 5538
5633 5632 5632 5631 5630 5630 5629 5628 5628 5627 5626 5626 5625 5625 5624 5624 5623 5623 5622 5622 5621 5621 5621 5621 5620 5620 5620 5619 5618 5618 5617 5616 5615 5614 5613 5612 5611 5610 5610 5609 5608 5607 5606 5605 5604 5602 5601 5600 5599 5598 5597 5596 5595 5593 5591 5590 5589 5587 5585 5583 5581 5580 5578 5576 5574 5572 5570 5568 5566 5564 5562 5560 5557 5555 5553 5551 5549 5547 5545 5543 5541 5540 5538 5537 5535 5534
5630 5630 5629 5628 5628 5627 5626 5626 5625 5625 5624 5623 5623 5622 5621 5621 5620 5620 5620 5619 5619 5618 5618 5618 5617 5617 5616 5616 5615 5615 5614 5613 5612 5611 5610 5609 5608 5607 5606 5606 5605 5604 5602 5601 5600 5599 5598 5596 5595 5594 5593 5592 5591 5590 5588 5586 5585 5583 5582 5580 5578 5576 5574 5572 5570 5568 5566 5564 5562 5560 5558 5556 5554 5552 5550 5548 5545 5543 5541 5539 5537 5536 5534 5533 5532 5530
5628 5628 5627 5626 5625 5625 5624 5623 5623 5622 5621 5621 5620 5620 5619 5619 5618 5617 5617 5616 5616 5616 5615 5615 5614 5614 5614 5613 5612 5612 5611 5610 5609 5608 5607 5606 5605 5604 5603 5602 5601 5600 5599 5598 5596 5595 5594 5593 5592 5591 5589 5588 5587 5586 5585 5583 5581 5580 5578 5577 5575 5573 5571 5569 5567 5565 5563 5561 5559 5557 5555 5553 5550 5549 5546 5544 5542 5540 5538 5536 5534 5532 5531 5530 5528 5527
5626 5625 5624 5624 5623 5622 5621 5621 5620 5620 5619 5618 5618 5617 5616 5616 5615 5615 5615 5614 5614 5613 5612 5612 5611 5611 5610 5610 5609 5608 5608 5607 5605 5605 5604 5602 5601 5600 5600 5599 5598 5597 5595 5594 5593 5592 5590 5589 5588 5587 5586 5584 5583 5581 5580 5579 5577 5576 5574 5573 5571 5569 5567 5566 5564 5562 5560 5558 5556 5554 5552 5550 5548 5546 5544 5541 5539 5537 5535 5533 5531 5529 5528 5526 5525 5524
5623 5623 5622 5621 5620 5620 5619 5618 5618 5617 5616 5615 5615 5615 5614 5613 5613 5612 5612 5611 5611 5610 5610 5609 5609 5608 5607 5607 5606 5605 5604 5603 5602 5601 5600 5599 5598 5597 5596 5595 5594 5593 5592 5591 5590 5588 5587 5585 5584 5583 5582 5580 5579 5577 5576 5575 5573 5572 5570 5569 5567 5565 5563 5562 5560 5558 5556 5554 5552 5551 5549 5547 5545 5543 5541 5539 5536 5534 5532 5530 5528 5526 5525 5523 5522 5521
5620 5620 5619 5618 5617 5617 5616 5615 5615 5614 5614 5613 5612 5612 5611 5611 5610 5610 5609 5609 5608 5608 5607 5606 5606 5605 5605 5604 5603 5602 5601 5600 5599 5598 5597 5596 5595 5594 5592 5591 5590 5590 5589 5587 5586 5585 5583 5582 5580 5579 5578 5577 5575 5574 5573 5571 5569 5568 5566 5565 5563 5561 5559 5558 5556 5554 5552 5550 5549 5547 5545 5543 5541 5539 5537 5535 5533 5531 5529 5527 5525 5523 5522 5520 5519 5518
5618 5617 5616 5615 5615 5614 5613 5613 5612 5611 5611 5610 5610 5609 5608 5608 5607 5607 5606 5606 5605 5605 5604 5603 5603 5602 5601 5600 5600 5599 5598 5597 5596 5595 5594 5593 5591 5590 5589 5588 5587 5586 5585 5584 5583 5581 5580 5578 5577 5575 5574 5572 5571 5570 5569 5567 5566 5564 5562 5560 5559 5557 5555 5554 5552 5550 5548 5546 5545 5543 5541 5539 5537 5535 5533 5531 5529 5527 5525 5523 5521 5520 5518 5517 5516 5515
5615 5614 5614 5613 5612 5611 5610 5610 5609 5609 5608 5607 5607 5606 5606 5605 5605 5604 5604 5603 5603 5602 5601 5600 5600 5599 5598 5597 5597 5596 5595 5594 5593 5591 5590 5589 5588 5587 5586 5585 5583 5582 5581 5580 5579 5578 5576 5575 5574 5572 5571 5569 5567 5566 5565 5563 5562 5560 5559 5557 5555 5553 5551 5550 5548 5546 5544 5543 5541 5539 5537 5535 5534 5532 5530 5528 5525 5524 5521 5520 5518 5516 5515 5514 5513 5511
5612 5611 5611 5610 5609 5608 5608 5607 5606 5606 5605 5605 5604 5604 5603 5602 5602 5601 5601 5600 5600 5599 5598 5598 5597 5596 5595 5594 5593 5592 5591 5590 5589 5588 5587 5586 5585 5584 5582 5581 5580 5579 5578 5576 5575 5574 5573 5572 5570 5568 5567 5565 5564 5562 5560 5559 5558 5556 5555 5553 5551 5550 5548 5546 5544 5542 5540 5539 5537 5535 5533 5532 5530 5528 5526 5524 5522 5520 5518 5516 5514 5513 5512 5510 5509 5508
5609 5609 5608 5607 5606 5605 5605 5604 5604 5603 5603 5602 5601 5601 5600 5600 5599 5598 5598 5597 5597 5596 5595 5595 5594 5593 5592 5591 5590 5589 5588 5587 5586 5585 5584 5582 5581 5580 5579 5578 5577 5575 5574 5573 5572 5570 5569 5568 5566 5565 5563 5562 5560 5558 5556 5555 5554 5552 5551 5549 5547 5545 5544 5542 5540 5539 5537 5535 5533 5532 5530 5528 5526 5524 5522 5520 5518 5516 5514 5513 5511 5509 5508 5507 5506 5505
5606 5605 5605 5604 5603 5603 5602 5601 5601 5600 5600 5600 5599 5598 5597 5597 5596 5595 5595 5594 5594 5593 5592 5591 5590 5590 5589 5588 5587 5586 5585 5584 5582 5581 5580 5579 5578 5577 5575 5575 5573 5572 5571 5570 5568 5567 5565 5564 5563 5561 5560 5558 5556 5555 5553 5551 5550 5548 5547 5545 5544 5542 5540 5538 5537 5535 5534 5532 5530 5528 5526 5525 5523 5521 5519 5517 5515 5513 5511 5509 5507 5506 5505 5503 5502 5501
5603 5602 5602 5601 5600 5600 5599 5599 5598 5598 5597 5597 5596 5595 5595 5594 5593 5592 5592 5591 5590 5590 5589 5588 5587 5586 5585 5585 5584 5582 5581 5580 5579 5578 5577 5576 5575 5573 5572 5571 5570 5569 5567 5566 5565 5563 5562 5560 5559 5557 5556 5554 5552 5551 5549 5547 5546 5544 5543 5541 5540 5538 5537 5535 5533 5531 5530 5528 5527 5525 5523 5521 5520 5518 5516 5514 5512 5510 5507 5505 5504 5502 5501 5500 5499 5498
5600 5600 5599 5598 5598 5597 5597 5596 5595 5595 5594 5594 5593 5592 5591 5591 5590 5589 5589 5588 5587 5586 5586 5585 5584 5583 5582 5581 5580 5579 5578 5577 5575 5575 5573 5572 5571 5570 5569 5567 5566 5565 5564 5562 5561 5560 5558 5556 5555 5553 5552 5550 5549 5547 5545 5544 5542 5540 5539 5537 5536 5534 5533 5531 5530 5528 5526 5525 5523 5521 5520 5518 5516 5514 5512 5510 5508 5506 5504 5502 5500 5499 5498 5496 5495 5495
5597 5596 5596 5595 5595 5595 5594 5593 5593 5592 5591 5591 5590 5589 5589 5588 5587 5586 5585 5585 5584 5583 5582 5581 5580 5580 5578 5577 5577 5576 5575 5574 5572 5571 5570 5569 5568 5567 5565 5564 5563 5561 5560 5558 5557 5556 5554 5553 5551 5549 5548 5546 5545 5543 5542 5540 5539 5537 5535 5534 5532 5530 5529 5527 5526 5524 5522 5521 5519 5518 5516 5514 5513 5511 5509 5507 5505 5503 5501 5499 5497 5495 5494 5493 5492 5491
5594 5593 5593 5592 5592 5591 5590 5590 5589 5589 5588 5588 5587 5586 5585 5585 5584 5583 5582 5581 5581 5580 5579 5578 5577 5576 5575 5574 5573 5572 5571 5570 5569 5568 5567 5565 5564 5563 5561 5560 5559 5558 5556 5555 5553 5552 5550 5549 5547 5545 5544 5543 5541 5539 5538 5537 5535 5534 5532 5530 5529 5527 5525 5524 5522 5520 5519 5517 5515 5514 5512 5510 5509 5507 5506 5504 5502 5500 5498 5495 5494 5492 5491 5490 5488 5488
5590 5590 5590 5589 5589 5588 5587 5587 5586 5586 5585 5585 5584 5583 5582 5581 5580 5580 5579 5578 5577 5576 5576 5575 5574 5573 5572 5571 5570 5569 5568 5567 5566 5565 5564 5562 5560 5559 5558 5556 5555 5554 5552 5551 5550 5548 5546 5545 5543 5542 5540 5539 5537 5535 5534 5533 5531 5530 5528 5527 5525 5524 5522 5520 5519 5517 5515 5513 5512 5510 5508 5507 5505 5504 5502 5501 5499 5497 5495 5492 5490 5489 5487 5486 5485 5484
5587 5587 5586 5586 5585 5585 5584 5584 5583 5583 5582 5581 5580 5580 5579 5578 5577 5576 5575 5575 5574 5573 5572 5571 5570 5569 5568 5567 5566 5565 5565 5563 5562 5561 5560 5559 5557 5555 5554 5553 5551 5550 5549 5547 5546 5545 5543 5541 5540 5538 5537 5535 5534 5532 5530 5529 5528 5526 5525 5523 5521 5520 5518 5517 5515 5513 5511 5510 5508 5506 5505 5503 5502 5500 5499 5497 5496 5494 5492 5490 5487 5485 5484 5483 5482 5481
5584 5583 5583 5582 5582 5581 5581 5580 5580 5579 5579 5578 5577 5577 5576 5575 5574 5573 5572 5571 5570 5570 5569 5568 5567 5566 5565 5564 5563 5562 5561 5560 5558 5557 5556 5555 5554 5552 5551 5550 5548 5547 5545 5544 5543 5541 5540 5538 5536 5534 5533 5532 5530 5528 5527 5525 5524 5522 5521 5519 5518 5516 5515 5513 5511 5510 5508 5506 5505 5503 5501 5500 5498 5496 5495 5494 5492 5491 5489 5487 5485 5482 5481 5480 5478 5478
5580 5580 5580 5579 5579 5578 5578 5577 5577 5576 5575 5575 5574 5573 5573 5572 5571 5570 5569 5568 5567 5566 5566 5565 5564 5562 5561 5560 5559 5558 5557 5556 5554 5553 5552 5551 5550 5549 5547 5546 5545 5544 5542 5541 5539 5538 5536 5535 5532 5530 5529 5528 5527 5525 5523 5521 5520 5518 5517 5515 5514 5513 5511 5509 5508 5506 5505 5503 5501 5499 5498 5496 5495 5493 5492 5490 5489 5487 5485 5484 5481 5479 5478 5476 5475 5474